Weather History for McCook, NE

Change the Weather History Date:

Wednesday, October 3, 2012

  Actual Average Record
Temperature  
Mean Temperature 69 °F 56 °F  
Max Temperature 94 °F 72 °F 97 °F (1967)
Min Temperature 43 °F 41 °F 28 °F (2009)
Cooling Degree Days 4    
Growing Degree Days 18 (Base 50)    
Moisture  
Dew Point 37 °F    
Average Humidity 42    
Maximum Humidity 77    
Minimum Humidity 10    
Precipitation  
Precipitation T in 0.06 in 0.57 in (1990)
Month to date precipitation 0.01 0.18  
Year to date precipitation 7.60 19.33  
Sea Level Pressure  
Sea Level Pressure 29.78 in    
Wind  
Wind Speed 9 mph (East)    
Max Wind Speed 36 mph    
Max Gust Speed 47 mph    
Visibility 10 miles    
Events      
T = Trace of Precipitation, MM = Missing Value Source: NWS Daily Summary

Daily Weather History Graph

Daily Weather History Graph

Search for Another Location

Airport:

Trip Planner

Search our weather history database for the weather conditions in past years. The results will help you decide how hot, cold, wet, or windy it might be!

Date:

Astronomy

Oct. 03, 2012 Rise Set
Actual Time 7:41 AM CDT 7:20 PM CDT
Civil Twilight 7:14 AM CDT 7:47 PM CDT
Nautical Twilight 6:42 AM CDT 8:18 PM CDT
Astronomical Twilight 6:10 AM CDT 8:50 PM CDT
Moon 9:13 PM CDT (10/3) 11:06 AM CDT (10/3)
Length of Visible Light 12h 33m
Length of Day
11h 39m
Waning Gibbous, 88% of the Moon is Illuminated
Oct 3
Waning Gibbous
Oct 8
Last Quarter
Oct 15
New
Oct 21
First Quarter
Oct 29
Full

Hourly Weather History & Observations

Time (CDT) Temp. Dew Point Humidity Pressure Visibility Wind Dir Wind Speed Gust Speed Precip Events Conditions
12:53 AM 55.0 °F 37.9 °F 53% 29.79 in 10.0 mi South 6.9 mph - N/A   Clear
1:53 AM 55.0 °F 39.0 °F 55% 29.79 in 10.0 mi Calm Calm - N/A   Clear
2:53 AM 48.9 °F 39.0 °F 69% 29.79 in 10.0 mi SE 3.5 mph - N/A   Clear
3:53 AM 50.0 °F 39.9 °F 68% 29.78 in 10.0 mi SE 4.6 mph - N/A   Clear
4:53 AM 48.0 °F 39.0 °F 71% 29.78 in 10.0 mi SE 4.6 mph - N/A   Clear
5:53 AM 48.0 °F 39.9 °F 74% 29.77 in 10.0 mi SE 5.8 mph - N/A   Clear
6:53 AM 48.0 °F 39.9 °F 74% 29.77 in 10.0 mi SSE 5.8 mph - N/A   Clear
7:53 AM 46.9 °F 39.9 °F 77% 29.79 in 10.0 mi South 3.5 mph - N/A   Clear
8:53 AM 50.0 °F 42.1 °F 74% 29.77 in 10.0 mi SSE 5.8 mph - N/A   Clear
10:53 AM 66.0 °F 45.0 °F 47% 29.76 in 10.0 mi SSW 5.8 mph - N/A   Clear
11:53 AM 75.9 °F 43.0 °F 31% 29.73 in 10.0 mi South 5.8 mph - N/A   Clear
12:53 PM 82.9 °F 39.9 °F 22% 29.70 in 10.0 mi Variable 3.5 mph - N/A   Clear
1:53 PM 88.0 °F 33.1 °F 14% 29.67 in 10.0 mi Calm Calm - N/A   Clear
2:53 PM 91.0 °F 32.0 °F 12% 29.65 in 10.0 mi Variable 6.9 mph - N/A   Clear
3:53 PM 91.9 °F 30.9 °F 11% 29.63 in 10.0 mi ESE 8.1 mph - N/A   Clear
4:41 PM 91.4 °F 30.2 °F 11% 29.68 in 10.0 mi WNW 8.1 mph - N/A   Clear
4:53 PM 91.0 °F 28.9 °F 11% 29.62 in 10.0 mi WNW 5.8 mph - N/A   Clear
5:53 PM 90.0 °F 26.1 °F 10% 29.64 in 10.0 mi NW 17.3 mph 41.4 mph N/A   Clear
6:53 PM 82.9 °F 32.0 °F 16% 29.70 in 6.0 mi North 35.7 mph 47.2 mph N/A   Haze
7:06 PM 80.6 °F 33.8 °F 18% 29.79 in 6.0 mi North 28.8 mph 40.3 mph N/A   Haze
7:53 PM 71.6 °F 37.4 °F 29% 29.83 in 8.0 mi North 33.4 mph 42.6 mph N/A   Clear
8:53 PM 64.0 °F 37.0 °F 37% 29.91 in 7.0 mi North 25.3 mph 35.7 mph N/A   Clear
9:53 PM 57.9 °F 37.0 °F 46% 30.01 in 10.0 mi North 24.2 mph - N/A   Clear
10:53 PM 53.1 °F 36.0 °F 52% 30.09 in 10.0 mi North 24.2 mph 32.2 mph N/A   Clear
11:53 PM 50.0 °F 36.0 °F 59% 30.15 in 10.0 mi North 19.6 mph 38.0 mph N/A   Overcast